ACH2055 SBSG-DGAA

Flight info

Callsign ACH2055
Flight time N/A
Altitude 33000
Route ILMIG DCT PUDON UZ14 BUGAT DCT UDIGA UL330 ASDOK DCT 00N018W 01N013W DCT UBUBI UP478 AD UB600 MIMTI MIMTI1B
Aircraft B738/M-SDE2E3FGHIRWXY/LB1

Departure

Time N/A
Airport Rio Grande do Norte/São Gonçalo do Amarante–Governador Aluízio Alves International Airport (SBSG)

Arrival

Time 2026-04-26 09:27
Airport Kotoka International Airport (DGAA)
Time Latitude Longitude Altitude Speed Heading
2026-04-26 08:42 2.64062 -9.09989 34941 ft 473 kts 63°
2026-04-26 08:42 2.65571 -9.07059 34944 ft 473 kts 63°
2026-04-26 08:43 2.68577 -9.01215 34939 ft 472 kts 63°
2026-04-26 08:43 2.71577 -8.95386 34941 ft 471 kts 63°
2026-04-26 08:44 2.74570 -8.89568 34939 ft 470 kts 63°
2026-04-26 08:44 2.77563 -8.83749 34939 ft 470 kts 63°
2026-04-26 08:45 2.80556 -8.77929 34942 ft 470 kts 63°
2026-04-26 08:45 2.83527 -8.72152 34942 ft 470 kts 63°
2026-04-26 08:46 2.86516 -8.66339 34947 ft 468 kts 63°
2026-04-26 08:46 2.89488 -8.60557 34942 ft 466 kts 63°
2026-04-26 08:47 2.92448 -8.54800 34941 ft 465 kts 63°
2026-04-26 08:47 2.95400 -8.49054 34944 ft 464 kts 63°
2026-04-26 08:48 2.98337 -8.43338 34948 ft 464 kts 63°
2026-04-26 08:48 3.01296 -8.37578 34948 ft 464 kts 63°
2026-04-26 08:49 3.04258 -8.31813 34941 ft 465 kts 63°
2026-04-26 08:49 3.07213 -8.26059 34941 ft 466 kts 63°
2026-04-26 08:51 3.17573 -8.05879 34943 ft 466 kts 63°
2026-04-26 08:52 3.20547 -8.00086 34946 ft 466 kts 63°
2026-04-26 08:52 3.23497 -7.94336 34945 ft 466 kts 63°
2026-04-26 08:53 3.26456 -7.88568 34950 ft 466 kts 63°
2026-04-26 08:53 3.29423 -7.82785 34951 ft 466 kts 63°
2026-04-26 08:54 3.32381 -7.77017 34945 ft 466 kts 63°
2026-04-26 08:54 3.35341 -7.71243 34949 ft 466 kts 63°
2026-04-26 08:55 3.38286 -7.65498 34954 ft 466 kts 63°
2026-04-26 08:55 3.41244 -7.59728 34952 ft 466 kts 63°
2026-04-26 08:56 3.44207 -7.53945 34943 ft 466 kts 63°
2026-04-26 08:56 3.47170 -7.48161 34947 ft 466 kts 63°
2026-04-26 08:57 3.50131 -7.42380 34946 ft 467 kts 63°
2026-04-26 08:57 3.53074 -7.36634 34947 ft 467 kts 63°
2026-04-26 08:58 3.56033 -7.30849 34944 ft 467 kts 63°
2026-04-26 08:58 3.58492 -7.26038 34945 ft 467 kts 63°
2026-04-26 08:59 3.61450 -7.20251 34947 ft 467 kts 63°
2026-04-26 08:59 3.64412 -7.14453 34947 ft 467 kts 63°
2026-04-26 09:00 3.67375 -7.08654 34943 ft 467 kts 63°
2026-04-26 09:00 3.70334 -7.02860 34946 ft 467 kts 63°
2026-04-26 09:01 3.73292 -6.97067 34950 ft 467 kts 63°
2026-04-26 09:01 3.76252 -6.91270 34945 ft 467 kts 63°
2026-04-26 09:02 3.79208 -6.85479 34942 ft 468 kts 63°
2026-04-26 09:02 3.82153 -6.79710 34945 ft 469 kts 63°
2026-04-26 09:03 3.85124 -6.73887 34952 ft 470 kts 63°
2026-04-26 09:03 3.88109 -6.68035 34949 ft 471 kts 63°
2026-04-26 09:04 3.91078 -6.62215 34949 ft 472 kts 63°
2026-04-26 09:04 3.94071 -6.56345 34948 ft 472 kts 63°
2026-04-26 09:05 4.06716 -6.31805 35004 ft 469 kts 63°
2026-04-26 09:05 4.53906 -5.38531 34935 ft 468 kts 64°
2026-04-26 09:06 5.00641 -4.46455 34942 ft 465 kts 64°
2026-04-26 09:06 5.42148 -3.51719 34896 ft 465 kts 81°
2026-04-26 09:06 5.41060 -3.00225 35012 ft 464 kts 100°
2026-04-26 09:07 5.34533 -2.48960 35013 ft 463 kts 88°
2026-04-26 09:07 5.44329 -1.98312 34968 ft 465 kts 73°
2026-04-26 09:07 5.52070 -1.68883 34736 ft 466 kts 89°
2026-04-26 09:07 5.51672 -1.65681 34849 ft 462 kts 104°
2026-04-26 09:08 5.50891 -1.62557 34902 ft 461 kts 102°
2026-04-26 09:08 5.50195 -1.56151 34950 ft 462 kts 90°
2026-04-26 09:09 5.50550 -1.49726 34975 ft 464 kts 85°
2026-04-26 09:09 5.51229 -1.43270 34963 ft 465 kts 85°
2026-04-26 09:10 5.51891 -1.36807 34978 ft 465 kts 85°
2026-04-26 09:10 5.52506 -1.30338 34251 ft 470 kts 85°
2026-04-26 09:10 5.52810 -1.27072 33448 ft 468 kts 85°
2026-04-26 09:11 5.53113 -1.23823 32584 ft 469 kts 85°
2026-04-26 09:11 5.53418 -1.20555 31707 ft 470 kts 85°
2026-04-26 09:11 5.53725 -1.17275 30770 ft 472 kts 85°
2026-04-26 09:11 5.54037 -1.13977 29684 ft 476 kts 85°
2026-04-26 09:12 5.54378 -1.10692 28386 ft 482 kts 84°
2026-04-26 09:12 5.54744 -1.07331 27200 ft 484 kts 84°
2026-04-26 09:12 5.55117 -1.03958 26013 ft 488 kts 83°
2026-04-26 09:12 5.55488 -1.00589 25163 ft 483 kts 83°
2026-04-26 09:13 5.55854 -0.97240 24290 ft 480 kts 83°
2026-04-26 09:13 5.56214 -0.93913 23425 ft 476 kts 83°
2026-04-26 09:13 5.56564 -0.90656 22460 ft 473 kts 83°
2026-04-26 09:13 5.56915 -0.87387 21596 ft 467 kts 83°
2026-04-26 09:14 5.57261 -0.84157 20752 ft 461 kts 83°
2026-04-26 09:14 5.57602 -0.80965 19909 ft 457 kts 83°
2026-04-26 09:14 5.57940 -0.77809 19083 ft 452 kts 83°
2026-04-26 09:14 5.58272 -0.74717 18266 ft 448 kts 83°
2026-04-26 09:15 5.58604 -0.71612 17336 ft 444 kts 83°
2026-04-26 09:15 5.58932 -0.68551 16536 ft 437 kts 83°
2026-04-26 09:15 5.59254 -0.65532 15782 ft 429 kts 82°
2026-04-26 09:15 5.59573 -0.62559 14990 ft 425 kts 83°
2026-04-26 09:16 5.59882 -0.59666 14186 ft 420 kts 83°
2026-04-26 09:16 5.60190 -0.56786 13517 ft 410 kts 83°
2026-04-26 09:16 5.60493 -0.53949 12754 ft 404 kts 83°
2026-04-26 09:16 5.60788 -0.51181 12359 ft 391 kts 83°
2026-04-26 09:17 5.61072 -0.48526 12228 ft 374 kts 83°
2026-04-26 09:17 5.61344 -0.45976 11916 ft 362 kts 84°
2026-04-26 09:17 5.61611 -0.43469 11428 ft 356 kts 84°
2026-04-26 09:17 5.61873 -0.41012 11003 ft 349 kts 84°
2026-04-26 09:18 5.62130 -0.38603 10615 ft 342 kts 84°
2026-04-26 09:18 5.62376 -0.36287 10225 ft 329 kts 84°
2026-04-26 09:18 5.62614 -0.34059 9876 ft 312 kts 84°
2026-04-26 09:18 5.62834 -0.31985 9879 ft 286 kts 84°
2026-04-26 09:19 5.63039 -0.30065 9710 ft 270 kts 84°
2026-04-26 09:19 5.63237 -0.28202 9201 ft 268 kts 84°
2026-04-26 09:19 5.63472 -0.26342 8658 ft 269 kts 77°
2026-04-26 09:19 5.64334 -0.24706 8280 ft 267 kts 50°
2026-04-26 09:20 5.65794 -0.23566 7971 ft 270 kts 28°
2026-04-26 09:20 5.67528 -0.22827 7664 ft 272 kts 24°
2026-04-26 09:20 5.69294 -0.22122 7341 ft 273 kts 24°
2026-04-26 09:20 5.71038 -0.21420 7026 ft 274 kts 24°
2026-04-26 09:21 5.72848 -0.20687 6365 ft 285 kts 24°
2026-04-26 09:21 5.74688 -0.19934 5720 ft 287 kts 24°
2026-04-26 09:21 5.76492 -0.19194 5571 ft 270 kts 24°
2026-04-26 09:21 5.78042 -0.18257 5397 ft 252 kts 49°
2026-04-26 09:22 5.78895 -0.16789 5112 ft 240 kts 76°
2026-04-26 09:22 5.79103 -0.15183 4943 ft 226 kts 96°
2026-04-26 09:22 5.78790 -0.13681 4698 ft 217 kts 111°
2026-04-26 09:22 5.78286 -0.12313 4588 ft 203 kts 112°
2026-04-26 09:23 5.77684 -0.11104 4406 ft 189 kts 135°
2026-04-26 09:23 5.76533 -0.10614 4099 ft 181 kts 184°
2026-04-26 09:23 5.75316 -0.10873 3813 ft 179 kts 194°
2026-04-26 09:23 5.74126 -0.11203 3471 ft 178 kts 195°
2026-04-26 09:24 5.72983 -0.11587 3175 ft 166 kts 199°
2026-04-26 09:24 5.71993 -0.11979 3036 ft 146 kts 201°
2026-04-26 09:24 5.71037 -0.12370 2990 ft 149 kts 200°
2026-04-26 09:24 5.70097 -0.12759 2967 ft 145 kts 200°
2026-04-26 09:25 5.69178 -0.13138 2585 ft 148 kts 201°
2026-04-26 09:25 5.68213 -0.13545 1944 ft 150 kts 201°
2026-04-26 09:25 5.67291 -0.13931 1633 ft 137 kts 201°
2026-04-26 09:25 5.66447 -0.14292 1382 ft 131 kts 201°
2026-04-26 09:26 5.65588 -0.14651 1198 ft 139 kts 201°
2026-04-26 09:26 5.64689 -0.15020 975 ft 138 kts 201°
2026-04-26 09:26 5.63801 -0.15384 750 ft 138 kts 201°
2026-04-26 09:26 5.62910 -0.15746 508 ft 138 kts 203°
2026-04-26 09:27 5.62025 -0.16108 296 ft 134 kts 204°
2026-04-26 09:27 5.61204 -0.16444 211 ft 120 kts 203°
2026-04-26 09:27 5.60634 -0.16677 210 ft 32 kts 201°
2026-04-26 09:27 5.60521 -0.16799 210 ft 20 kts 248°
2026-04-26 09:28 5.60466 -0.16923 211 ft 19 kts 245°
2026-04-26 09:28 5.60360 -0.16997 209 ft 19 kts 202°
2026-04-26 09:28 5.60243 -0.17045 208 ft 18 kts 202°
2026-04-26 09:28 5.60129 -0.17092 207 ft 17 kts 215°
2026-04-26 09:29 5.60096 -0.17194 212 ft 16 kts 288°